Weather in Malyye Tuvany

Russia / Chuvash Republic     55°41′00″N   46°41′14″E
temp.,
°C
wind,
m/s
gust,
m/s
humid.,
%
clouds,
%
prec.,
mm/h
press.,
hPa
HPBL,
m
29 may, sun
sun2900:00+8wsw71489100 0.1 1006483
03:00+7sw613951 0.1 1007425
06:00+9wsw613880 0.0 1009489
09:00+13wsw711670 0.0 10111251
12:00+15wsw8115836 0.2 10121898
15:00+16wsw71066100 0.6 10131610
18:00+13sw6108196 0.7 1013590
21:00+9ssw411922 0.9 1015211
30 may, mon
mon3000:00+7sw410945 0.0 1015196
03:00+6wsw49930 0.0 1016159
06:00+9wsw48860 0.0 1018264
09:00+14w68690 0.0 1019865
12:00+16w68572 0.0 10201748
15:00+17w67545 0.0 10201909
18:00+16w36700 0.0 1021327
21:00+11w33805 0.0 102232
31 may, tue
tue3100:00+10w3379100 0.0 102324
03:00+9wsw228473 0.0 102410
06:00+12ssw127663 0.0 102489
09:00+17sw226233 0.0 1024548
12:00+19w1250100 0.0 10241590
15:00+20n124743 0.0 10241806
18:00+18ene2369100 0.0 1023100
21:00+14ese237299 0.0 102420
1 june, wed
wed100:00+12se347590 0.0 102450
03:00+11se348387 0.0 102461
06:00+13se367782 0.0 1024156
09:00+18se4565100 0.0 1023567
12:00+21se565890 0.0 10221299
15:00+20se357199 0.0 1022379
18:00+17ne1180100 0.3 102213
21:00+16se3582100 0.3 102182
2 june, thu
thu200:00+16s378597 0.0 1021126
03:00+16ssw368596 0.2 1021139
06:00+17ssw379099 0.3 1021256
09:00+20sw4681100 0.3 1020656
12:00+22sw4666100 0.0 1020991
15:00+24sw4665100 0.0 10191407
18:00+23s367531 0.0 1018280
21:00+18s3388100 0.0 101836